Location: Newark
(7.1028°S, 35.3258°W)
Time: 17:42:45
(UTC+00:00)

Vanguard 3 - Pass Details

Date: 26 February 2020
Orbit: 508 x 3263 km, 33.4° (Epoch: 05 April)

Event Time Altitude Azimuth Distance (km) Brightness Sun altitude
Rises 02:16:03 0° 232° (SW) 6,579 12.0 -73.3°
Reaches altitude 10° 02:22:49 10° 217° (SW) 5,045 11.3 -73.7°
Enters shadow 02:24:23 12° 212° (SSW) 4,704 11.1 -73.7°
